Location: Champs
(48.8539°N, 2.6040°E)
Time: 02:09:52
(UTC+00:00)

USA 308 - Pass Details

Date: 05 June 2022
Orbit: 549 x 558 km, 54.0° (Epoch: 14 June)

Event Time Altitude Azimuth Distance (km) Brightness Sun altitude
Rises 20:34:03 0° 213° (SSW) 2,712 6.2 -6.5°
Reaches altitude 10° 20:36:24 10° 205° (SSW) 1,823 5.3 -6.7°
Maximum altitude 20:40:11 35° 139° (SE) 907 3.4 -7.2°
Drops below altitude 10° 20:43:59 10° 73° (ENE) 1,839 5.2 -7.6°
Sets 20:46:21 0° 65° (ENE) 2,740 6.2 -7.8°
